Home   Weather   Yuzhno-Sakhalinsk   Past weeks

Flag for Russia Past Weather in Yuzhno-Sakhalinsk, Russia — Yesterday and Last 2 Weeks

Now
52 °F

Partly sunny.


Feels Like: 48 °F
Forecast: 44 / 50 °F
Wind: 10 mph from North

Location: Yuzhno Airport-Sakhalinsk

Current Time: Jun 24, 2017 at 6:05:02 pm

Latest Report: Jun 24, 2017 at 5:30 pm


Visibility: N/A

Pressure: 29.68 "Hg

Humidity: 100%

Dew Point: 52 °F

Location of Yuzhno-SakhalinskLocation

Past Weather in Yuzhno-Sakhalinsk — Graph

°F

Yuzhno-Sakhalinsk Temperature Yesterday

Maximum temperature yesterday: 64 °F (at 11:30 am)
Minimum temperature yesterday: 48 °F (at 6:30 am)
Average temperature yesterday: 56 °F

High & Low Weather Summary for the Past Weeks

 TemperatureHumidityPressure
High66 °F (Jun 9, 6:00 pm)100% (Jun 9, 11:00 pm)29.98 "Hg (Jun 9, 11:00 pm)
Low32 °F (Jun 13, 4:00 am)37% (Jun 13, 4:00 pm)29.42 "Hg (Jun 9, 4:00 pm)
Average52 °F91%29.80 "Hg
* Reported Jun 9 4:00 pm — Jun 24 4:30 pm, Yuzhno-Sakhalinsk. Weather by CustomWeather, © 2017

Note: Actual official high and low records may vary slightly from our data, if they occured in-between our weather recording intervals... More about our weather records

Advertising

Yuzhno-Sakhalinsk Weather History for the Previous 24 Hours

Scroll right to see more
 ConditionsComfort  
Time TempWeatherWind HumidityBarometerVisibility
4:30 pm
Sat, Jun 24
54 °FPartly sunny.10 mph94%29.65 "HgN/A
4:00 pm55 °FPartly sunny.17 mph94%29.65 "HgN/A
3:30 pm57 °FPartly sunny.13 mph94%29.65 "HgN/A
3:00 pm55 °FPartly sunny.10 mph94%29.65 "HgN/A
2:30 pm55 °FPartly sunny.13 mph94%29.65 "HgN/A
2:00 pm55 °FBroken clouds.15 mph94%29.65 "HgN/A
1:30 pm54 °FBroken clouds.15 mph100%29.65 "HgN/A
1:00 pm54 °FSprinkles. Partly sunny.15 mph100%29.65 "HgN/A
12:30 pm54 °FSprinkles. Fog.8 mph100%29.65 "Hg5 mi
12:00 pm52 °FSprinkles. Broken clouds.13 mph100%29.65 "Hg6 mi
11:30 am52 °FSprinkles. Partly sunny.13 mph100%29.68 "Hg6 mi
11:00 am55 °FSprinkles. Partly sunny.3 mph100%29.65 "Hg4 mi
10:30 am55 °FPartly sunny.1 mph100%29.65 "HgN/A
10:00 am55 °FPartly sunny.1 mph100%29.65 "HgN/A
9:30 am55 °FSprinkles. Partly sunny.1 mph100%29.65 "Hg4 mi
9:00 am54 °FSprinkles. Partly sunny.1 mph100%29.65 "Hg5 mi
8:30 am54 °FSprinkles. Partly sunny.1 mph100%29.65 "Hg6 mi
8:00 am54 °FSprinkles. Partly sunny.3 mph100%29.65 "Hg4 mi
7:30 am54 °FSprinkles. Fog.No wind100%29.65 "Hg3 mi
7:00 am52 °FSprinkles. Partly sunny.No wind100%29.65 "Hg5 mi
6:00 am52 °FSprinkles. Partly sunny.3 mph100%29.65 "Hg6 mi
5:00 am52 °FSprinkles. Passing clouds.3 mph100%29.65 "Hg4 mi
4:00 am52 °FSprinkles. Passing clouds.3 mph100%29.65 "Hg4 mi
3:00 am52 °FDrizzle. Fog.3 mph100%29.65 "Hg1 mi
2:00 am52 °FFog.No wind100%29.68 "Hg2 mi
1:00 am52 °FRain. Overcast.3 mph100%29.68 "Hg1 mi
12:00 am52 °FLow clouds.3 mph100%29.68 "Hg4 mi
11:00 pm
Fri, Jun 23
52 °FPassing clouds.3 mph100%29.68 "HgN/A
10:30 pm52 °FPassing clouds.3 mph100%29.68 "HgN/A
10:00 pm52 °FPassing clouds.3 mph100%29.68 "HgN/A
9:30 pm52 °FPassing clouds.6 mph100%29.68 "HgN/A
9:00 pm54 °FPassing clouds.6 mph100%29.68 "HgN/A
8:30 pm55 °FScattered clouds.3 mph94%29.68 "HgN/A
8:00 pm55 °FScattered clouds.3 mph94%29.68 "HgN/A
7:30 pm55 °FBroken clouds.6 mph94%29.68 "HgN/A
7:00 pm57 °FBroken clouds.6 mph88%29.68 "HgN/A
6:30 pm55 °FSprinkles. Partly sunny.8 mph94%29.68 "HgN/A
6:00 pm57 °FPartly sunny.3 mph88%29.68 "HgN/A
Weather by CustomWeather, © 2017

See weather overviewHow to use our weather pages